AO-85 (40967 NORAD) Tracking and Keplerian Element Data

This shows tracking and keplerian element data for the satellite.

Feedback or suggestion? Click here.




ElementValue
Catalog40967
NameAO-85
Epoch Orbit7467
Epoch Day263.27480072
Epoch Year2022
RAAN143.3896
Inclination64.7747
Eccentricity0.0182777
Argument of Perigee169.516
Mean Anonmoly190.9845
Mean Motion14.77718565
Decay Rate1.434E-05
L11 40967U 15058D 22263.27480072 .00001434 00000-0 16923-3 0 4867
L22 40967 64.7747 143.3896 0182777 169.5160 190.9845 14.77718565 74678

Live tracking and technical data element details for AO-85 (NORAD 40967). AO-85 can be tracked NOW for your location showing map with azimuth and elevation plus other details from your city location.

Track the satellite on the map from your city or location and see movement details for azimuth, elevation, latitude, longitude, range, height, and movement on the map or in text.







IsCatalogInMostPopularTable: catalog: 40967, numindb: 711
Update: records affected: 1



GetName: 40967 AO-85

Hit Count: updated at: Wed, 28 Sep 2022 22:08:09 GMT